Find STARLINK-37994

NORAD ID: 799501027 Int'l Des: 2026-146D Constellation: starlink operational

Aktuelle Ansicht

3D-Globus wird geladen...

About STARLINK-37994

STARLINK-37994 (NORAD 799501027) is a starlink constellation satellite launched Jun 12, 2026

Über STARLINK-37994

Beschreibung wird geladen...

Nächste Überflüge

Passes for default location (London). Set your location on the main map for personalized predictions.

Höhenverlauf

Loading altitude history...

Zweizeiliger Elementsatz

1 99999C 2026146D 26176.63312500 .00591130 00000-0 897260-4 0 1760
2 99999 97.2862 22.3164 0011397 278.6626 137.4070 16.04085015 10
Epoch: 25. Juni 2026 • Age: 4 hours

Aktueller Status

Höhe 273.0 km
Geschwindigkeit 7.75 km/s
Subsatellitenpunkt -42.14°S, 173.99°W
Startdatum 12. Juni 2026
Alter 13 days
Typ internet

Most Searched